Flag for U.S.A. Weather past 2 weeks in Aurora, Illinois, U.S.A.

Now
79 °F

Passing clouds.


Feels Like: 82 °F
Forecast: 67 / 80 °F
Wind: 10 mph from South

Location: Dupage Airport

Current Time: Aug 29, 2014 at 11:48:16 AM

Latest Report: Aug 29, 2014 at 10:52 AM


Visibility: 8 mi

Pressure: 29.96 "Hg

Humidity: 77%

Dew point: 71 °F

Location of AuroraLocation

Historic Weather in Aurora — Graph

°F

Aurora temperature yesterday

Maximum temperature yesterday: 80 °F (at 2:52 PM)
Minimum temperature yesterday: 63 °F (at 12:52 AM)
Average temperature yesterday: 70 °F

Past Weeks' High & Low Weather Summary

 TemperatureHumidityPressure
High88 °F (Aug 24, 2:52 PM)97% (Aug 18, 2:52 AM)30.14 "Hg (Aug 18, 2:52 AM)
Low51 °F (Aug 15, 2:52 AM)42% (Aug 15, 2:52 PM)29.68 "Hg (Aug 19, 3:52 PM)
Average73 °F78%29.96 "Hg
* Reported Aug 14 10:52 AM — Aug 29 10:52 AM, Aurora, Weather by CustomWeather, © 2014

Note: Actual official high and low records may vary slightly from our data, if they occured in-between our weather recording intervals... More about our weather records

Advertising

Aurora weather history for previous 24 hours

 ConditionsComfort  
Time TempWeatherWind HumidityBarometerVisibility
10:52 AM
Aug 29
79 °FPassing clouds.10 mph77%29.96 "Hg8 mi
9:52 AM78 °FScattered clouds.13 mph79%29.97 "Hg8 mi
8:52 AM75 °FScattered clouds.9 mph82%29.96 "Hg9 mi
7:52 AM72 °FScattered clouds.7 mph87%29.97 "Hg9 mi
6:52 AM70 °FPassing clouds.7 mph90%29.97 "Hg7 mi
5:52 AM70 °FPartly cloudy.7 mph87%29.96 "Hg9 mi
4:52 AM70 °FPassing clouds.6 mph87%29.95 "Hg9 mi
3:52 AM70 °FPassing clouds.7 mph87%29.95 "Hg10 mi
2:52 AM69 °FPassing clouds.5 mph90%29.96 "Hg8 mi
1:52 AM69 °FClear.3 mph90%29.96 "Hg8 mi
12:52 AM69 °FClear.6 mph87%29.99 "Hg8 mi
11:52 PM
Aug 28
69 °FFog.6 mph87%30.01 "Hg6 mi
10:52 PM68 °FFog.5 mph90%30.03 "Hg5 mi
9:52 PM67 °FLight rain. Passing clouds.7 mph90%30.02 "Hg7 mi
8:52 PM68 °FLight rain. Passing clouds.6 mph82%30.04 "Hg8 mi
7:52 PM69 °FPassing clouds.5 mph76%30.03 "Hg10 mi
6:52 PM70 °FLight rain. Partly sunny.8 mph71%30.03 "Hg10 mi
5:52 PM73 °FPartly sunny.10 mph62%30.04 "Hg10 mi
4:52 PM75 °FSunny.13 mph54%30.03 "Hg10 mi
3:52 PM79 °FSunny.9 mph47%30.04 "Hg10 mi
2:52 PM80 °FSunny.6 mph42%30.05 "Hg10 mi
1:52 PM79 °FSunny.7 mph44%30.07 "Hg10 mi
12:52 PM78 °FSunny.8 mph43%30.08 "Hg10 mi
11:52 AM76 °FSunny.8 mph48%30.10 "Hg10 mi
Weather by CustomWeather, © 2014

See weather overviewHow to use our weather pages